Location: Highland Meadows Observing Site
(48.4428°N, 114.5461°W)
Time: 04:08:13
(UTC-06:00)

Amateur Radio Satellites - All Passes

Search period start: 28 April 2017 03:38
Search period end: 29 April 2017 03:38
Location: Highland Meadows Observing Site, 48.4428°N, 114.5461°W

Satellite Date Start Highest point End Downlink Frequencies (MHz)
Time Altitude Azimuth
PCSat 28 Apr 03:39:34 03:45:00 89° 305° (NW) 03:50:28 145.827
CUBESAT XI-V 28 Apr 03:43:39 03:45:38 13° 55° (NE) 03:47:36 437.345
ITUPSAT 1 28 Apr 03:46:48 03:51:33 77° 256° (WSW) 03:56:20 437.325
MOZHAYETS 4 28 Apr 04:22:34 04:27:06 70° 258° (WSW) 04:31:41
KKS-1 28 Apr 04:24:13 04:28:02 28° 64° (ENE) 04:31:52 437.445
ITAMSAT 1 28 Apr 04:32:05 04:36:51 36° 97° (E) 04:41:35 435.822/435.867
Oscar 19 28 Apr 04:42:46 04:46:54 24° 300° (WNW) 04:51:01 437.125/150
BEESAT 28 Apr 04:44:05 04:47:54 24° 267° (W) 04:51:46 436.000
AO-7 28 Apr 04:48:38 04:56:32 45° 99° (E) 05:04:24 .
STARS 28 Apr 04:51:48 04:55:22 25° 63° (ENE) 04:58:56 437.465
Gurwin Techsat 1B 28 Apr 04:56:35 05:01:10 30° 298° (WNW) 05:05:44 435.225
YUBILEINY 28 Apr 05:14:01 05:22:35 69° 94° (E) 05:31:14 435.215
CUBESAT XI-V 28 Apr 05:17:34 05:22:13 80° 74° (ENE) 05:26:56 437.345
PCSat 28 Apr 05:24:51 05:29:09 23° 326° (NW) 05:33:28 145.827
KKS-1 28 Apr 06:00:20 06:04:28 36° 262° (W) 06:08:38 437.445
ITAMSAT 1 28 Apr 06:11:37 06:16:19 36° 295° (WNW) 06:21:00 435.822/435.867
RS-15 28 Apr 06:18:45 06:26:23 20° 95° (E) 06:34:07 29.354- 29.394
STARS 28 Apr 06:27:19 06:31:30 41° 261° (W) 06:35:42 437.465
STRAND 1 28 Apr 06:34:00 06:37:16 18° 57° (ENE) 06:40:34 437.568
SO-50 28 Apr 06:38:16 06:42:05 26° 116° (ESE) 06:45:52 436.795
AO-7 28 Apr 06:41:30 06:49:26 52° 300° (WNW) 06:57:23 .
XW-2F 28 Apr 06:42:53 06:44:15 12° 88° (E) 06:45:38 145.980 - 146.000
NUDT-PHONESAT 28 Apr 06:49:32 06:50:35 11° 88° (E) 06:51:38 437.300
DOVE 4 28 Apr 06:53:06 06:57:04 28° 93° (E) 07:00:51 437.250
M-CUBED/EXP-1 PRIME 28 Apr 06:56:40 07:00:44 30° 59° (ENE) 07:04:47 437.505
CUBESAT XI-V 28 Apr 06:57:53 07:00:12 14° 273° (W) 07:02:31 437.345
YUBILEINY 28 Apr 07:12:34 07:20:08 32° 297° (WNW) 07:27:47 435.215
PCSat 28 Apr 07:13:07 07:14:40 11° 351° (N) 07:16:14 145.827
CUTE-I 28 Apr 07:31:01 07:35:57 37° 97° (E) 07:40:51 437.470
XW-2D 28 Apr 07:31:54 07:35:33 42° 98° (E) 07:39:12 145.860 - 145.880
XW-2B 28 Apr 07:38:51 07:42:33 48° 99° (E) 07:46:17 145.730 - 145.750
KAITUO 1B 28 Apr 07:44:20 07:47:59 45° 99° (E) 07:51:38 145.475/437.950
XW-2C 28 Apr 07:50:47 07:54:36 68° 101° (ESE) 07:58:25 145.795 - 145.815
LilacSat-2 28 Apr 07:51:47 07:55:38 73° 103° (ESE) 07:59:29 437.200
HO-68 28 Apr 07:56:42 08:01:59 21° 89° (E) 08:07:15 435.675
XW-2A 28 Apr 08:05:22 08:06:42 12° 90° (E) 08:08:03 145.665 - 145.685
STRAND 1 28 Apr 08:10:44 08:15:51 82° 256° (WSW) 08:20:58 437.568
ISS 28 Apr 08:11:52 08:12:46 11° 134° (SE) 08:13:40 437.550
XW-2F 28 Apr 08:15:02 08:18:49 66° 286° (WNW) 08:22:36 145.980 - 146.000
SO-50 28 Apr 08:17:49 08:22:18 51° 315° (NW) 08:26:46 436.795
NUDT-PHONESAT 28 Apr 08:21:13 08:24:56 67° 285° (WNW) 08:28:38 437.300
RS-15 28 Apr 08:24:31 08:36:28 70° 119° (ESE) 08:48:42 29.354- 29.394
DOVE 4 28 Apr 08:30:36 08:34:52 36° 293° (WNW) 08:38:54 437.250
M-CUBED/EXP-1 PRIME 28 Apr 08:30:37 08:35:00 41° 257° (WSW) 08:39:26 437.505
AO-7 28 Apr 08:35:43 08:40:24 17° 324° (NW) 08:45:05 .
UWE-3 28 Apr 08:44:01 08:45:24 11° 87° (E) 08:46:48 435.000/436.395/437.385
AAUSAT CUBESAT 2 28 Apr 08:55:35 08:58:23 17° 90° (E) 09:01:09 437.432
PCSat 28 Apr 08:58:00 09:00:39 13° 19° (NNE) 09:03:16 145.827
CUBEBUG 2 28 Apr 08:59:16 09:02:46 25° 94° (E) 09:06:17 437.445
XW-2D 28 Apr 09:06:46 09:09:29 19° 296° (WNW) 09:12:11 145.860 - 145.880
FO-29 28 Apr 09:08:48 09:11:51 15° 54° (NE) 09:14:48 435.910
Tancredo 1 28 Apr 09:10:46 09:13:39 37° 147° (SSE) 09:16:33 437.200
CUTE 1.7 + AOD 2 28 Apr 09:10:55 09:15:14 71° 102° (ESE) 09:19:30 437.475
CUTE-I 28 Apr 09:11:09 09:15:59 36° 296° (WNW) 09:20:46 437.470
XW-2B 28 Apr 09:13:57 09:16:25 17° 297° (WNW) 09:18:54 145.730 - 145.750
KAITUO 1B 28 Apr 09:19:09 09:21:41 17° 297° (WNW) 09:24:14 145.475/437.950
UNISAT 6 28 Apr 09:26:05 09:28:45 16° 60° (ENE) 09:31:23 437.425
XW-2C 28 Apr 09:26:33 09:28:18 13° 300° (WNW) 09:30:04 145.795 - 145.815
SEEDS 28 Apr 09:27:30 09:31:46 70° 102° (ESE) 09:36:01 437.485
LilacSat-2 28 Apr 09:27:47 09:29:23 12° 300° (WNW) 09:30:59 437.200
ZACube-1 28 Apr 09:33:49 09:37:09 22° 93° (E) 09:40:31 437.345
XW-2A 28 Apr 09:36:30 09:39:46 48° 287° (WNW) 09:43:00 145.665 - 145.685
AO-73 28 Apr 09:39:33 09:42:57 23° 93° (E) 09:46:23 145.935
HO-68 28 Apr 09:43:20 09:50:35 85° 289° (WNW) 09:57:47 435.675
ISS 28 Apr 09:45:28 09:48:41 56° 151° (SSE) 09:51:53 437.550
Oscar 11 28 Apr 09:52:46 09:56:29 27° 94° (E) 10:00:11 .
STRAND 1 28 Apr 09:53:59 09:55:51 12° 274° (W) 09:57:41 437.568
PRISM 28 Apr 09:54:08 09:58:04 43° 69° (ENE) 10:02:03 437.425
SO-50 28 Apr 10:00:59 10:03:47 16° 337° (NNW) 10:06:33 436.795
UWE-3 28 Apr 10:18:12 10:22:24 80° 285° (WNW) 10:26:40 435.000/436.395/437.385
AAUSAT CUBESAT 2 28 Apr 10:30:03 10:34:09 52° 289° (WNW) 10:38:14 437.432
CUBEBUG 2 28 Apr 10:35:41 10:39:27 34° 292° (WNW) 10:43:15 437.445
RS-15 28 Apr 10:37:48 10:49:43 53° 327° (NNW) 11:01:48 29.354- 29.394
TIGRISAT 28 Apr 10:38:50 10:43:09 71° 74° (ENE) 10:47:26 435.000
PCSat 28 Apr 10:40:42 10:45:43 35° 43° (NE) 10:50:41 145.827
Tancredo 1 28 Apr 10:46:24 10:49:29 57° 346° (NNW) 10:52:33 437.200
CUTE 1.7 + AOD 2 28 Apr 10:48:03 10:50:32 15° 300° (WNW) 10:53:01 437.475
FO-29 28 Apr 10:50:09 10:56:15 78° 73° (ENE) 11:01:45 435.910
POLYITAN 1 28 Apr 10:53:37 10:54:46 11° 56° (NE) 10:55:55 437.675
DELFI C3 28 Apr 10:57:22 11:01:06 37° 97° (E) 11:04:49 145.870
QB50P2 28 Apr 10:59:18 11:01:22 13° 58° (ENE) 11:03:27 145.880/145.840
UNISAT 6 28 Apr 11:00:40 11:05:00 66° 259° (WSW) 11:09:18 437.425
O/OREOS (USA 219) 28 Apr 11:01:39 11:06:08 54° 110° (ESE) 11:10:38 437.305
SEEDS 28 Apr 11:04:29 11:06:56 15° 300° (WNW) 11:09:24 437.485
ZACube-1 28 Apr 11:09:39 11:13:35 40° 290° (WNW) 11:17:36 437.345
OBJECT BX 28 Apr 11:10:45 11:14:12 37° 98° (E) 11:17:38 145.990 - 145.960
AO-73 28 Apr 11:15:23 11:19:19 39° 291° (WNW) 11:23:18 145.935
NANOSAT C BR1 28 Apr 11:18:30 11:21:15 17° 61° (ENE) 11:24:00 145.865
ISS 28 Apr 11:22:02 11:25:14 50° 351° (N) 11:28:26 437.550
AIST 2D 28 Apr 11:27:14 11:30:19 30° 69° (ENE) 11:33:24 435.315
Oscar 11 28 Apr 11:28:43 11:32:41 35° 292° (WNW) 11:36:39 .
PRISM 28 Apr 11:30:23 11:33:33 21° 267° (W) 11:36:43 437.425
HO-68 28 Apr 11:32:08 11:37:23 23° 310° (NW) 11:42:39 435.675
SO-50 28 Apr 11:45:27 11:46:10 10° 2° (N) 11:46:54 436.795
DUCHIFAT 1 28 Apr 11:46:15 11:49:49 28° 66° (ENE) 11:53:23 145.980
EO-79 28 Apr 11:46:18 11:50:05 33° 67° (ENE) 11:53:52 145.935-145.965
UWE-3 28 Apr 11:57:22 11:58:10 10° 303° (WNW) 11:58:58 435.000/436.395/437.385
LO-87 28 Apr 12:08:30 12:11:32 25° 95° (E) 12:14:31 145.935 - 145.965
TIGRISAT 28 Apr 12:18:11 12:20:20 13° 271° (W) 12:22:28 435.000
AO-85 28 Apr 12:19:39 12:21:54 14° 112° (ESE) 12:24:07 145.980
Tancredo 1 28 Apr 12:22:40 12:25:40 45° 6° (N) 12:28:41 437.200
PCSat 28 Apr 12:24:04 12:29:18 50° 243° (WSW) 12:34:30 145.827
POLYITAN 1 28 Apr 12:25:38 12:29:51 82° 76° (ENE) 12:34:05 437.675
QB50P2 28 Apr 12:32:22 12:36:36 80° 258° (WSW) 12:40:50 145.880/145.840
DELFI C3 28 Apr 12:32:31 12:35:42 23° 295° (WNW) 12:38:52 145.870
FO-29 28 Apr 12:37:54 12:41:52 18° 270° (W) 12:45:38 435.910
BUGSAT 1 28 Apr 12:40:00 12:43:43 33° 68° (ENE) 12:47:25 437.445
O/OREOS (USA 219) 28 Apr 12:42:09 12:45:52 23° 311° (NW) 12:49:36 437.305
OBJECT BX 28 Apr 12:45:01 12:47:39 19° 296° (WNW) 12:50:18 145.990 - 145.960
Oscar 19 28 Apr 12:45:59 12:49:42 20° 58° (ENE) 12:53:26 437.125/150
NANOSAT C BR1 28 Apr 12:52:25 12:56:33 58° 259° (W) 13:00:43 145.865
RS-15 28 Apr 12:54:30 13:05:43 37° 360° (N) 13:16:47 29.354- 29.394
ISS 28 Apr 12:58:49 13:02:02 53° 10° (N) 13:05:15 437.550
AIST 2D 28 Apr 13:00:59 13:03:36 20° 267° (W) 13:06:14 435.315
Gurwin Techsat 1B 28 Apr 13:03:31 13:07:05 19° 56° (ENE) 13:10:41 435.225
ESTCUBE 1 28 Apr 13:09:30 13:14:03 66° 102° (ESE) 13:18:34 437.505/2401.250
VELOX 1 28 Apr 13:14:38 13:18:10 23° 93° (E) 13:21:41 145.980
BEESAT 3 28 Apr 13:19:58 13:20:54 11° 109° (ESE) 13:21:50 437.485
DUCHIFAT 1 28 Apr 13:21:38 13:25:24 32° 264° (W) 13:29:12 145.980
EO-79 28 Apr 13:22:16 13:25:52 27° 265° (W) 13:29:29 145.935-145.965
SO-50 28 Apr 13:25:20 13:28:27 18° 27° (NNE) 13:31:34 436.795
YUBILEINY 28 Apr 13:25:58 13:27:45 11° 41° (NE) 13:29:31 435.215
LO-87 28 Apr 13:41:57 13:44:56 25° 293° (WNW) 13:47:53 145.935 - 145.965
AO-85 28 Apr 13:57:38 14:01:50 75° 310° (NW) 14:05:50 145.980
Tancredo 1 28 Apr 13:58:36 14:01:41 70° 207° (SSW) 14:04:47 437.200
DX 1 28 Apr 13:59:50 14:03:29 26° 94° (E) 14:07:07 434.975-435.025
SPROUT 28 Apr 14:01:34 14:05:49 64° 102° (ESE) 14:10:01 437.525
AO-7 28 Apr 14:01:51 14:08:06 25° 45° (NE) 14:14:20 .
50 SAT 28 Apr 14:02:28 14:05:46 38° 99° (E) 14:09:02 437.505
POLYITAN 1 28 Apr 14:04:58 14:06:13 11° 273° (W) 14:07:28 437.675
BUGSAT 1 28 Apr 14:15:40 14:19:08 25° 265° (W) 14:22:34 437.445
ITAMSAT 1 28 Apr 14:17:22 14:20:08 15° 53° (NE) 14:22:53 435.822/435.867
Oscar 19 28 Apr 14:23:21 14:28:31 70° 257° (WSW) 14:33:43 437.125/150
ISS 28 Apr 14:35:23 14:38:33 49° 210° (SSW) 14:41:42 437.550
Gurwin Techsat 1B 28 Apr 14:41:06 14:46:25 81° 256° (WSW) 14:51:47 435.225
ESTCUBE 1 28 Apr 14:47:22 14:50:23 18° 300° (WNW) 14:53:23 437.505/2401.250
VELOX 1 28 Apr 14:50:36 14:54:48 43° 292° (WNW) 14:58:58 145.980
BEESAT 3 28 Apr 14:53:50 14:57:47 87° 128° (SE) 15:01:50 437.485
BEESAT 2 28 Apr 14:57:41 15:01:24 40° 120° (ESE) 15:05:12 435.950
UKube-1 28 Apr 14:58:13 15:02:34 69° 103° (ESE) 15:06:51 .
SO-50 28 Apr 15:05:13 15:09:44 69° 49° (NE) 15:14:13 436.795
RS-15 28 Apr 15:09:40 15:21:44 52° 33° (NNE) 15:33:19 29.354- 29.394
YUBILEINY 28 Apr 15:19:25 15:27:39 42° 68° (ENE) 15:35:52 435.215
Tancredo 1 28 Apr 15:35:31 15:37:08 13° 223° (SW) 15:38:45 437.200
DX 1 28 Apr 15:35:44 15:39:46 37° 293° (WNW) 15:43:46 434.975-435.025
50 SAT 28 Apr 15:36:05 15:38:26 17° 296° (WNW) 15:40:47 437.505
SPROUT 28 Apr 15:38:37 15:41:15 16° 300° (WNW) 15:43:53 437.525
AO-85 28 Apr 15:40:17 15:42:51 16° 330° (NNW) 15:45:23 145.980
ITUPSAT 1 28 Apr 15:44:05 15:47:40 21° 92° (E) 15:51:14 437.325
AO-7 28 Apr 15:51:27 15:59:44 81° 67° (ENE) 16:08:04 .
ITAMSAT 1 28 Apr 15:53:37 15:58:48 80° 73° (ENE) 16:04:01 435.822/435.867
Oscar 19 28 Apr 16:08:40 16:08:47 10° 276° (W) 16:08:55 437.125/150
MOZHAYETS 4 28 Apr 16:14:16 16:17:47 21° 92° (E) 16:21:18
Gurwin Techsat 1B 28 Apr 16:25:04 16:27:13 12° 274° (W) 16:29:23 435.225
BEESAT 3 28 Apr 16:33:04 16:35:56 19° 328° (NNW) 16:38:49 437.485
UKube-1 28 Apr 16:35:28 16:38:05 16° 301° (WNW) 16:40:41 .
BEESAT 2 28 Apr 16:35:42 16:39:16 30° 320° (NW) 16:42:52 435.950
BEESAT 28 Apr 16:38:56 16:43:42 65° 102° (ESE) 16:48:26 436.000
SO-50 28 Apr 16:46:37 16:49:43 18° 247° (WSW) 16:52:48 436.795
CUBESAT XI-V 28 Apr 17:11:26 17:14:19 16° 88° (E) 17:17:10 437.345
YUBILEINY 28 Apr 17:16:18 17:24:42 53° 271° (W) 17:33:06 435.215
CUTE-I 28 Apr 17:19:22 17:22:31 16° 54° (NE) 17:25:40 437.470
ITUPSAT 1 28 Apr 17:21:09 17:25:50 55° 290° (WNW) 17:30:30 437.325
RS-15 28 Apr 17:22:50 17:35:00 70° 240° (WSW) 17:46:35 29.354- 29.394
XW-2F 28 Apr 17:28:26 17:29:18 11° 59° (ENE) 17:30:09 145.980 - 146.000
ITAMSAT 1 28 Apr 17:35:48 17:38:53 16° 271° (W) 17:42:00 435.822/435.867
AO-7 28 Apr 17:46:45 17:53:23 26° 268° (W) 18:00:05 .
KKS-1 28 Apr 17:47:12 17:51:11 31° 96° (E) 17:55:06 437.445
MOZHAYETS 4 28 Apr 17:50:44 17:55:12 50° 290° (WNW) 17:59:40
DOVE 4 28 Apr 18:00:52 18:05:53 46° 69° (ENE) 18:10:47 437.250
STARS 28 Apr 18:12:53 18:16:33 26° 94° (E) 18:20:13 437.465
XW-2D 28 Apr 18:16:39 18:20:03 34° 70° (ENE) 18:23:30 145.860 - 145.880
BEESAT 28 Apr 18:17:40 18:21:01 19° 301° (WNW) 18:24:22 436.000
BEESAT 2 28 Apr 18:17:45 18:18:18 10° 343° (NNW) 18:18:49 435.950
XW-2B 28 Apr 18:23:32 18:27:03 39° 70° (ENE) 18:30:35 145.730 - 145.750
KAITUO 1B 28 Apr 18:27:50 18:31:14 35° 70° (ENE) 18:34:40 145.475/437.950
HO-68 28 Apr 18:29:49 18:35:29 26° 53° (NE) 18:41:10 435.675
CUTE 1.7 + AOD 2 28 Apr 18:34:58 18:35:54 11° 56° (NE) 18:36:50 437.475
XW-2C 28 Apr 18:35:23 18:39:02 54° 73° (ENE) 18:42:44 145.795 - 145.815
LilacSat-2 28 Apr 18:36:56 18:40:38 60° 74° (ENE) 18:44:23 437.200
CUBESAT XI-V 28 Apr 18:47:28 18:52:11 70° 287° (WNW) 18:56:52 437.345
SEEDS 28 Apr 18:51:02 18:51:35 10° 56° (NE) 18:52:08 437.485
CUTE-I 28 Apr 18:56:27 19:01:49 86° 72° (ENE) 19:07:11 437.470
XW-2F 28 Apr 18:59:07 19:02:50 82° 257° (WSW) 19:06:36 145.980 - 146.000
NUDT-PHONESAT 28 Apr 19:03:43 19:07:23 88° 253° (WSW) 19:11:05 437.300
AO-85 28 Apr 19:06:03 19:07:18 11° 21° (NNE) 19:08:32 145.980
YUBILEINY 28 Apr 19:17:41 19:19:17 11° 293° (WNW) 19:20:53 435.215
KKS-1 28 Apr 19:23:46 19:27:43 32° 294° (WNW) 19:31:38 437.445
O/OREOS (USA 219) 28 Apr 19:28:57 19:32:57 28° 52° (NE) 19:36:55 437.305
RS-15 28 Apr 19:37:27 19:45:01 20° 265° (W) 19:52:26 29.354- 29.394
DOVE 4 28 Apr 19:39:11 19:43:42 28° 267° (W) 19:48:09 437.250
UWE-3 28 Apr 19:44:14 19:46:46 16° 61° (ENE) 19:49:17 435.000/436.395/437.385
STARS 28 Apr 19:48:58 19:53:00 37° 293° (WNW) 19:57:00 437.465
AAUSAT CUBESAT 2 28 Apr 19:49:17 19:52:15 19° 63° (ENE) 19:55:14 437.432
XW-2D 28 Apr 19:51:31 19:54:22 20° 267° (W) 19:57:15 145.860 - 145.880
XW-2B 28 Apr 19:58:48 20:01:25 18° 268° (W) 20:04:04 145.730 - 145.750
CUBEBUG 2 28 Apr 20:00:44 20:04:36 34° 68° (ENE) 20:08:25 437.445
KAITUO 1B 28 Apr 20:02:40 20:05:23 19° 268° (W) 20:08:08 145.475/437.950
CUTE 1.7 + AOD 2 28 Apr 20:06:45 20:10:58 78° 75° (ENE) 20:15:14 437.475
XW-2A 28 Apr 20:10:54 20:14:15 85° 257° (WSW) 20:17:37 145.665 - 145.685
XW-2C 28 Apr 20:11:43 20:13:36 13° 271° (W) 20:15:29 145.795 - 145.815
NO-84 28 Apr 20:12:59 20:16:29 42° 141° (SE) 20:19:42 435.350 FM
LilacSat-2 28 Apr 20:13:41 20:15:19 12° 271° (W) 20:16:58 437.200
HO-68 28 Apr 20:15:20 20:22:30 81° 253° (WSW) 20:29:44 435.675
STRAND 1 28 Apr 20:17:49 20:22:03 26° 93° (E) 20:26:17 437.568
SEEDS 28 Apr 20:22:19 20:26:30 76° 74° (ENE) 20:30:44 437.485
CUBESAT XI-V 28 Apr 20:27:16 20:28:42 11° 306° (NW) 20:30:07 437.345
ZACube-1 28 Apr 20:33:11 20:36:42 27° 66° (ENE) 20:40:13 437.345
AO-73 28 Apr 20:38:36 20:42:08 28° 67° (ENE) 20:45:41 145.935
CUTE-I 28 Apr 20:39:32 20:42:34 15° 272° (W) 20:45:36 437.470
AO-85 28 Apr 20:45:01 20:48:45 39° 44° (NE) 20:52:34 145.980
Oscar 11 28 Apr 20:50:56 20:54:46 32° 67° (ENE) 20:58:38 .
O/OREOS (USA 219) 28 Apr 21:08:11 21:12:30 41° 252° (WSW) 21:16:45 437.305
UWE-3 28 Apr 21:18:36 21:22:48 63° 259° (W) 21:26:57 435.000/436.395/437.385
AAUSAT CUBESAT 2 28 Apr 21:23:20 21:27:22 49° 261° (W) 21:31:27 437.432
BEESAT 3 28 Apr 21:30:04 21:33:33 27° 38° (NE) 21:37:02 437.485
BEESAT 2 28 Apr 21:34:35 21:37:24 18° 31° (NNE) 21:40:12 435.950
CUBEBUG 2 28 Apr 21:37:38 21:41:18 26° 266° (W) 21:44:53 437.445
M-CUBED/EXP-1 PRIME 28 Apr 21:40:13 21:44:28 88° 110° (ESE) 21:48:21 437.505
CUTE 1.7 + AOD 2 28 Apr 21:45:48 21:47:22 12° 273° (W) 21:48:57 437.475
DELFI C3 28 Apr 21:46:06 21:49:45 35° 69° (ENE) 21:53:26 145.870
NO-84 28 Apr 21:50:41 21:54:03 41° 338° (NNW) 21:57:07 435.350 FM
OBJECT BX 28 Apr 21:52:07 21:55:18 29° 68° (ENE) 21:58:29 145.990 - 145.960
STRAND 1 28 Apr 21:56:34 22:01:28 48° 292° (WNW) 22:06:22 437.568
SEEDS 28 Apr 22:01:03 22:02:43 12° 273° (W) 22:04:25 437.485
HO-68 28 Apr 22:06:58 22:11:21 17° 274° (W) 22:15:47 435.675
ZACube-1 28 Apr 22:09:10 22:12:55 32° 264° (W) 22:16:40 437.345
AO-73 28 Apr 22:14:38 22:18:20 31° 264° (W) 22:22:02 145.935
AO-85 28 Apr 22:25:37 22:29:00 27° 242° (WSW) 22:32:29 145.980
Oscar 11 28 Apr 22:27:11 22:30:55 29° 265° (W) 22:34:41 .
TIGRISAT 28 Apr 22:28:50 22:29:47 11° 87° (E) 22:30:44 435.000
ESTCUBE 1 28 Apr 22:38:25 22:40:41 14° 57° (ENE) 22:42:57 437.505/2401.250
LO-87 28 Apr 22:48:24 22:51:07 20° 65° (ENE) 22:53:49 145.935 - 145.965
UNISAT 6 28 Apr 22:49:01 22:52:06 19° 92° (E) 22:55:12 437.425
PRISM 28 Apr 23:06:43 23:10:40 40° 99° (E) 23:14:33 437.425
BEESAT 3 28 Apr 23:07:27 23:11:20 46° 239° (WSW) 23:15:09 437.485
BEESAT 2 28 Apr 23:11:41 23:15:47 84° 51° (NE) 23:19:51 435.950
M-CUBED/EXP-1 PRIME 28 Apr 23:16:06 23:18:11 13° 310° (NW) 23:20:11 437.505
DELFI C3 28 Apr 23:21:25 23:24:37 23° 267° (W) 23:27:52 145.870
OBJECT BX 28 Apr 23:26:04 23:29:00 23° 266° (W) 23:31:58 145.990 - 145.960
SPROUT 28 Apr 23:26:14 23:27:11 11° 56° (NE) 23:28:09 437.525
NO-84 28 Apr 23:29:23 23:32:06 24° 359° (N) 23:34:41 435.350 FM
FO-29 28 Apr 23:39:35 23:44:35 45° 99° (E) 23:49:52 435.910
TIGRISAT 29 Apr 00:02:47 00:07:05 87° 285° (WNW) 00:11:25 435.000
ESTCUBE 1 29 Apr 00:12:18 00:16:50 88° 265° (W) 00:21:24 437.505/2401.250
QB50P2 29 Apr 00:15:01 00:16:57 13° 88° (E) 00:18:54 145.880/145.840
VELOX 1 29 Apr 00:15:04 00:19:03 33° 66° (ENE) 00:23:03 145.980
LO-87 29 Apr 00:21:01 00:24:22 34° 263° (W) 00:27:43 145.935 - 145.965
AIST 2D 29 Apr 00:21:40 00:24:31 22° 94° (E) 00:27:22 435.315
UKube-1 29 Apr 00:22:48 00:24:49 13° 57° (ENE) 00:26:51 .
UNISAT 6 29 Apr 00:24:56 00:29:05 49° 289° (WNW) 00:33:16 437.425
NANOSAT C BR1 29 Apr 00:33:43 00:36:29 17° 91° (E) 00:39:14 145.865
50 SAT 29 Apr 00:38:45 00:41:44 27° 68° (ENE) 00:44:45 437.505
PRISM 29 Apr 00:42:27 00:45:43 23° 297° (WNW) 00:48:58 437.425
BEESAT 2 29 Apr 00:51:09 00:52:57 13° 250° (WSW) 00:54:43 435.950
SPROUT 29 Apr 00:58:05 01:02:21 77° 74° (ENE) 01:06:38 437.525
DX 1 29 Apr 00:58:32 01:02:33 36° 67° (ENE) 01:06:35 434.975-435.025
DUCHIFAT 1 29 Apr 01:01:28 01:05:06 28° 95° (E) 01:08:45 145.980
EO-79 29 Apr 01:02:23 01:06:15 35° 97° (E) 01:10:07 145.935-145.965
NO-84 29 Apr 01:07:15 01:10:12 40° 21° (NNE) 01:12:59 435.350 FM
FO-29 29 Apr 01:25:10 01:29:36 29° 297° (WNW) 01:34:11 435.910
PCSat 29 Apr 01:29:54 01:31:44 12° 102° (ESE) 01:33:33 145.827
TIGRISAT 29 Apr 01:41:32 01:43:08 12° 303° (WNW) 01:44:42 435.000
POLYITAN 1 29 Apr 01:42:15 01:46:28 89° 285° (WNW) 01:50:41 437.675
QB50P2 29 Apr 01:49:03 01:53:15 71° 287° (WNW) 01:57:26 145.880/145.840
VELOX 1 29 Apr 01:51:32 01:55:29 31° 264° (W) 01:59:28 145.980
BUGSAT 1 29 Apr 01:52:52 01:56:31 32° 97° (E) 02:00:08 437.445
ESTCUBE 1 29 Apr 01:53:06 01:54:19 11° 274° (W) 01:55:32 437.505/2401.250
AIST 2D 29 Apr 01:54:41 01:57:44 28° 292° (WNW) 02:00:47 435.315
UKube-1 29 Apr 01:55:52 02:00:13 87° 256° (WSW) 02:04:35 .
NANOSAT C BR1 29 Apr 02:08:26 02:12:31 53° 289° (WNW) 02:16:35 145.865
50 SAT 29 Apr 02:11:51 02:14:40 23° 265° (W) 02:17:32 437.505
BEESAT 29 Apr 02:13:15 02:16:20 18° 58° (ENE) 02:19:26 436.000
Oscar 19 29 Apr 02:31:18 02:35:56 31° 95° (E) 02:40:31 437.125/150
DX 1 29 Apr 02:35:05 02:38:48 27° 265° (W) 02:42:33 434.975-435.025
SPROUT 29 Apr 02:37:04 02:38:48 12° 272° (W) 02:40:32 437.525
DUCHIFAT 1 29 Apr 02:37:06 02:40:47 31° 293° (WNW) 02:44:28 145.980
EO-79 29 Apr 02:38:24 02:41:55 26° 295° (WNW) 02:45:23 145.935-145.965
NO-84 29 Apr 02:44:56 02:47:38 32° 221° (SW) 02:50:14 435.350 FM
Gurwin Techsat 1B 29 Apr 02:53:46 02:58:26 30° 94° (E) 03:03:04 435.225
ITUPSAT 1 29 Apr 02:54:05 02:58:25 36° 66° (ENE) 03:02:47 437.325
PCSat 29 Apr 03:08:45 03:14:08 71° 121° (ESE) 03:19:34 145.827
MOZHAYETS 4 29 Apr 03:19:30 03:23:29 31° 66° (ENE) 03:27:30
POLYITAN 1 29 Apr 03:20:02 03:21:36 12° 303° (WNW) 03:23:10 437.675
BUGSAT 1 29 Apr 03:28:26 03:31:47 26° 295° (WNW) 03:35:06 437.445
UKube-1 29 Apr 03:36:29 03:36:54 10° 273° (W) 03:37:20 .
